Weather in Nikolaevka

Russia / Kamchatka Krai     53°02′47″N   158°20′00″E
temp.,
°C
wind,
m/s
gust,
m/s
humid.,
%
clouds,
%
prec.,
mm/h
press.,
hPa
HPBL,
m
20 january, thu
thu2000:00−10wnw4473100 0.1 100682
03:00−10nw4474100 0.1 100680
06:00−11nw3376100 0.1 100653
09:00−12wnw3378100 0.0 100748
12:00−8nw3372100 0.1 1008136
15:00−6nw3372100 0.1 1007208
18:00−9nw3379100 0.3 100857
21:00−10wnw2281100 0.2 101049
21 january, fri
fri2100:00−9wnw2290100 0.7 101056
03:00−9nnw1292100 0.9 101056
06:00−9wnw2288100 1.4 101144
09:00−9nw2284100 0.3 101328
12:00−7nnw0177100 0.4 1013123
15:00−5ne1171100 0.0 1012227
18:00−11wnw117899 0.0 101321
21:00−14w227916 0.0 101421
22 january, sat
sat2200:00−15wnw227519 0.0 101322
03:00−15wnw327681 0.0 101324
06:00−14wnw327776 0.0 101224
09:00−14wnw328071 0.0 101224
12:00−8wnw227466 0.0 101260
15:00−5n117162 0.0 1010153
18:00−12w228115 0.0 101019
21:00−15w33875 0.0 101122
23 january, sun
sun2300:00−16w33868 0.0 101025
03:00−16w33838 0.0 100927
06:00−16w338810 0.0 100828
09:00−16w43889 0.0 100829
12:00−10w33835 0.0 1007113
15:00−8w33775 0.0 1005295
18:00−14w43845 0.0 100637
21:00−16w44857 0.0 100737
24 january, mon
mon2400:00−16w438450 0.0 100734
03:00−13w3384100 0.0 100739
06:00−14w438594 0.0 100738
09:00−15w338645 0.0 100832
12:00−10wnw23815 0.0 1008104
15:00−7wnw23744 0.0 1007323
18:00−14w33855 0.0 100919
21:00−16w338910 0.0 101025